Location: Unspecified
(0.0000°N, 0.0000°E)
Time: 09:16:44
(UTC+01:00)

ASC 2 Rocket - Visible Passes

Search period start: 29 January 2015 00:00
Search period end: 08 February 2015 00:00
Orbit: 555 x 2348 km, 24.0° (Epoch: 28 January)

Date Brightness Start Highest point End Pass type
(mag) Time Alt. Az. Time Alt. Az. Time Alt. Az.
29 Jan 6.8 04:19:04 19° NNE 04:19:04 19° NNE 04:26:29 10° NE visible
29 Jan 6.8 06:14:13 10° NW 06:24:57 32° NNE 06:37:12 10° ENE visible
29 Jan 3.8 20:54:52 10° SW 20:58:08 38° S 20:58:08 38° S visible
30 Jan 6.6 05:12:06 20° NNW 05:16:45 25° NNE 05:27:28 10° ENE visible
30 Jan 4.6 19:49:56 10° SSW 19:53:11 22° SSE 19:56:24 10° ESE visible
30 Jan 6.1 21:51:07 10° WSW 21:51:22 12° WSW 21:51:22 12° WSW visible
31 Jan 6.8 04:10:18 19° NNE 04:10:18 19° NNE 04:17:07 10° NE visible
31 Jan 6.6 06:05:08 12° NW 06:15:19 36° NNE 06:28:07 10° E visible
31 Jan 2.8 20:45:43 10° WSW 20:49:45 69° SSE 20:49:45 69° SSE visible
01 Feb 6.4 05:03:22 22° N 05:07:22 27° NNE 05:18:22 10° ENE visible
01 Feb 3.9 19:40:16 10° SW 19:44:20 35° SSE 19:48:04 10° E visible
01 Feb 5.8 21:42:33 10° W 21:43:03 13° W 21:43:03 13° W visible
02 Feb 6.8 04:01:36 19° NNE 04:01:36 19° NNE 04:07:57 10° ENE visible
02 Feb 6.4 05:56:28 15° NW 06:05:35 42° NNE 06:18:47 10° E visible
02 Feb 2.9 20:36:42 10° WSW 20:40:51 68° NNW 20:41:29 56° NNE visible
03 Feb 6.2 04:54:44 26° N 04:57:54 30° NNE 05:09:10 10° E visible
03 Feb 3.2 19:30:45 10° SW 19:35:29 61° SSE 19:39:28 10° ENE visible
03 Feb 5.7 21:34:16 10° WNW 21:34:49 12° WNW 21:34:49 12° WNW visible
04 Feb 6.7 03:53:01 20° NE 03:53:01 20° NE 03:58:51 10° ENE visible
04 Feb 6.1 05:47:53 20° NW 05:55:44 49° NNE 06:09:15 10° E visible
04 Feb 3.8 20:27:50 10° W 20:31:57 39° NNW 20:33:17 29° NNE visible
05 Feb 6.0 04:46:12 32° N 04:48:20 35° NNE 04:59:48 10° E visible
05 Feb 5.9 06:41:50 10° WNW 06:53:28 76° NNE 07:08:04 10° ESE visible
05 Feb 5.8 21:26:27 10° NW 21:26:38 11° NW 21:26:38 11° NW visible
06 Feb 6.7 03:44:32 20° NE 03:44:32 20° NE 03:49:44 10° ENE visible
06 Feb 5.8 05:39:24 26° NW 05:45:52 58° NNE 05:59:28 10° ESE visible
06 Feb 4.6 20:19:09 10° W 20:22:59 25° NNW 20:25:07 17° NNE visible
07 Feb 5.7 04:37:45 40° NNE 04:38:42 41° NNE 04:50:15 10° E visible
07 Feb 5.7 06:32:37 11° WNW 06:43:27 90° NE 06:57:57 10° ESE visible
